Le nostre stazioni meteo in Italia

Pubblicità
Il mio iltempo24.it
Treviso/Istrana, Italia (16098): Temperatura & dewpoint: 10.02.2019 07:00:00 - 16.02.2019 07:00:00 (CET)Treviso/Istrana, Italia (16098): velocità del vento: 10.02.2019 07:00:00 - 16.02.2019 07:00:00 (CET)Treviso/Istrana, Italia (16098): direzione del vento: 10.02.2019 07:00:00 - 16.02.2019 07:00:00 (CET)Treviso/Istrana, Italia (16098): reduced air pressure: 10.02.2019 07:00:00 - 16.02.2019 07:00:00 (CET)Treviso/Istrana, Italia (16098): visibility: 10.02.2019 07:00:00 - 16.02.2019 07:00:00 (CET)
Data & Tempo tt [°C] td [°C] ff [km/h] ff [kn] dd ppp [hPa] vv [km]
16.02.2019 07:00:00 0,2 0,1 2 1 NNO 1031,8 9
16.02.2019 06:00:00 0,4 0,3 4 2 NNO 1031,9 9
16.02.2019 05:00:00 0,8 0,7 4 2 ENE 1031,6 9
16.02.2019 04:00:00 1,0 0,9 4 2 NNE 1031,7 9
16.02.2019 03:00:00 1,2 1,2 4 2 E 1032,0 9
16.02.2019 02:00:00 2,0 2,0 5 3 N 1032,3 10
16.02.2019 01:00:00 2,8 2,7 5 3 N 1032,4 10
16.02.2019 00:00:00 4,0 3,1 8 4 NNO 1032,5 10
15.02.2019 23:00:00 3,2 2,6 5 3 SO 1032,3 12
15.02.2019 22:00:00 4,4 3,5 5 3 SO 1032,0 12
15.02.2019 21:00:00 5,6 3,4 5 3 NNO 1032,0 15
15.02.2019 20:00:00 7,4 4,4 8 4 N 1032,2 15
15.02.2019 19:00:00 9,2 3,4 0 0 N 1032,1 15
15.02.2019 18:00:00 12,4 4,1 5 3 S 1031,5 15
15.02.2019 17:00:00 13,4 4,3 9 5 S 1031,1 15
15.02.2019 16:00:00 15,2 4,0 9 5 SSE 1030,7 20
15.02.2019 15:00:00 15,4 2,9 5 3 OSO 1030,2 20
15.02.2019 14:00:00 15,6 2,8 0 0 N 1030,7 25
15.02.2019 13:00:00 15,0 3,2 5 3 E 1031,6 30
15.02.2019 12:00:00 13,6 3,4 11 6 SE 1032,2 30
15.02.2019 11:00:00 13,6 3,9 4 2 ESE 1032,2 30
15.02.2019 10:00:00 9,0 4,2 5 3 S 1032,3 30
15.02.2019 09:00:00 5,6 2,1 0 0 N 1032,2 30
15.02.2019 08:00:00 4,0 0,9 9 5 NNO 1032,4 25
15.02.2019 07:00:00 2,0 -0,3 5 3 NNO 1032,2 12
15.02.2019 06:00:00 1,0 -0,5 4 2 NO 1032,1 8
15.02.2019 05:00:00 1,0 -0,5 4 2 N 1032,5 8
15.02.2019 04:00:00 1,0 0,3 0 0 N 1032,5 8
15.02.2019 03:00:00 2,0 1,7 5 3 NNE 1032,6 8
15.02.2019 02:00:00 2,0 1,7 8 4 NNO 1032,6 8
15.02.2019 01:00:00 2,0 2,0 5 3 O 1033,1 8
15.02.2019 00:00:00 3,0 2,4 0 0 N 1033,0 8
14.02.2019 23:00:00 3,0 2,3 4 2 O 1032,7 8
14.02.2019 22:00:00 4,0 3,4 5 3 N 1032,6 8
14.02.2019 21:00:00 4,8 3,9 9 5 NO 1032,8 8
14.02.2019 20:00:00 5,6 3,9 8 4 NNO 1033,2 9
14.02.2019 19:00:00 6,4 4,2 2 1 N 1033,6 9
14.02.2019 18:00:00 8,0 4,4 5 3 ENE 1032,8 9
14.02.2019 17:00:00 9,6 4,2 5 3 E 1032,6 9
14.02.2019 16:00:00 11,0 4,0 5 3 ESE 1032,7 9
14.02.2019 15:00:00 9,8 3,3 4 2 E 1033,1 10
14.02.2019 14:00:00 10,8 4,5 4 2 SE 1034,1 10
14.02.2019 13:00:00 9,8 4,2 8 4 E 1034,7 10
14.02.2019 12:00:00 10,0 4,2 5 3 E 1035,1 10
14.02.2019 11:00:00 8,8 4,6 8 4 E 1035,4 11
14.02.2019 10:00:00 6,8 3,4 5 3 E 1035,8 11
14.02.2019 09:00:00 3,2 2,5 2 1 E 1036,2 10
14.02.2019 08:00:00 2,0 1,3 2 1 O 1036,2 10
14.02.2019 07:00:00 2,0 1,3 8 4 NNE 1036,3 10
14.02.2019 06:00:00 0,2 -0,2 4 2 NE 1036,4 10
14.02.2019 05:00:00 0,0 -0,7 8 4 NE 1037,1 10
14.02.2019 04:00:00 1,4 0,5 0 0 N 1037,1 10
14.02.2019 03:00:00 1,4 0,5 4 2 N 1037,7 10
14.02.2019 02:00:00 1,6 0,1 0 0 N 1038,7 10
14.02.2019 01:00:00 2,0 1,3 0 0 N 1037,7 10
14.02.2019 00:00:00 2,2 1,5 0 0 N 1037,7 10
13.02.2019 23:00:00 3,2 2,5 0 0 N 1037,7 10
13.02.2019 22:00:00 4,0 3,3 5 3 NNE 1037,7 10
13.02.2019 21:00:00 4,0 2,5 5 3 NNE 1036,9 15
13.02.2019 20:00:00 5,8 3,3 4 2 SE 1036,5 15
13.02.2019 19:00:00 7,0 2,5 8 4 ESE 1036,0 15
13.02.2019 18:00:00 9,0 2,3 5 3 SO 1035,0 18
13.02.2019 17:00:00 11,0 2,6 11 6 SO 1034,9 25
13.02.2019 16:00:00 12,0 3,2 13 7 OSO 1034,4 30
13.02.2019 15:00:00 11,0 2,3 16 9 SO 1034,4 30
13.02.2019 14:00:00 11,0 1,5 16 9 OSO 1035,3 30
13.02.2019 13:00:00 11,0 1,0 15 8 OSO 1035,4 30
13.02.2019 12:00:00 11,0 1,8 18 10 OSO 1035,7 30
13.02.2019 11:00:00 10,6 3,9 8 4 OSO 1036,2 30
13.02.2019 10:00:00 7,0 2,7 0 0 N 1035,8 40
13.02.2019 09:00:00 4,0 1,9 5 3 NE 1035,7 35
13.02.2019 08:00:00 1,4 1,4 5 3 ESE 1035,3 15
13.02.2019 07:00:00 1,8 1,7 0 0 N 1034,4 15
13.02.2019 06:00:00 2,4 1,5 5 3 N 1033,9 12
13.02.2019 05:00:00 2,4 1,7 0 0 N 1033,6 12
13.02.2019 04:00:00 2,4 1,8 8 4 N 1033,1 12
13.02.2019 03:00:00 2,4 2,4 0 0 N 1032,9 12
13.02.2019 02:00:00 3,0 1,8 0 0 N 1032,9 12
13.02.2019 01:00:00 3,0 1,2 13 7 NNE 1032,5 12
13.02.2019 00:00:00 2,8 2,5 9 5 NE 1031,9 12
12.02.2019 23:00:00 3,2 2,2 8 4 E 1031,0 12
12.02.2019 22:00:00 4,0 2,0 5 3 E 1029,9 15
12.02.2019 21:00:00 5,0 2,2 8 4 NNE 1028,7 15
12.02.2019 20:00:00 6,0 2,8 9 5 NNE 1026,6 15
12.02.2019 19:00:00 6,8 1,3 9 5 NE 1026,2 15
12.02.2019 18:00:00 8,0 -0,5 9 5 ENE 1025,5 15
12.02.2019 17:00:00 10,0 1,4 13 7 ENE 1024,5 20
12.02.2019 16:00:00 12,0 1,3 16 9 E 1023,8 20
12.02.2019 15:00:00 12,0 3,2 13 7 E 1023,0 30
12.02.2019 14:00:00 12,0 -0,5 11 6 E 1022,5 30
12.02.2019 13:00:00 12,0 -0,5 8 4 SSE 1022,6 30
12.02.2019 12:00:00 10,0 2,6 8 4 ESE 1022,8 30
12.02.2019 11:00:00 8,2 5,0 9 5 E 1022,8 30
12.02.2019 10:00:00 5,0 3,5 8 4 E 1023,1 30
12.02.2019 09:00:00 3,0 1,5 4 2 ESE 1022,8 30
12.02.2019 08:00:00 2,0 -1,4 8 4 E 1022,8 30
12.02.2019 07:00:00 2,2 -3,7 5 3 NE 1022,4 30
12.02.2019 06:00:00 4,0 -6,8 8 4 NO 1022,0 15
12.02.2019 05:00:00 4,4 -6,5 11 6 NO 1022,0 15
12.02.2019 04:00:00 4,4 -5,1 9 5 NNO 1021,8 15
12.02.2019 03:00:00 4,4 -6,5 8 4 NNO 1021,5 15
12.02.2019 02:00:00 4,4 -5,1 5 3 NNO 1021,5 15
12.02.2019 01:00:00 4,6 -4,9 5 3 NNO 1020,4 15
12.02.2019 00:00:00 5,0 0,9 9 5 NNO 1019,4 15
11.02.2019 23:00:00 - - - - - - -
11.02.2019 22:00:00 5,6 2,8 8 4 NNO 1018,4 8
11.02.2019 21:00:00 6,0 4,5 9 5 N 1016,4 6
11.02.2019 20:00:00 6,4 6,0 8 4 OSO 1015,1 6
11.02.2019 19:00:00 7,4 7,1 5 3 ONO 1014,3 6
11.02.2019 18:00:00 8,4 7,7 0 0 N 1013,1 5
11.02.2019 17:00:00 10,4 8,8 0 0 N 1012,0 6
11.02.2019 16:00:00 11,0 7,9 5 3 O 1011,2 6
11.02.2019 15:00:00 10,4 7,8 15 8 O 1010,4 6
11.02.2019 14:00:00 10,2 7,8 9 5 O 1010,4 5
11.02.2019 13:00:00 9,8 7,6 11 6 OSO 1009,8 5
11.02.2019 12:00:00 9,2 7,3 8 4 SO 1009,6 5
11.02.2019 11:00:00 8,2 7,1 0 0 N 1009,3 3,2
11.02.2019 10:00:00 5,4 4,4 0 0 N 1008,7 0,6
11.02.2019 09:00:00 4,8 3,8 0 0 N 1007,7 0,1
11.02.2019 08:00:00 5,2 4,2 9 5 ONO 1006,1 0,2
11.02.2019 07:00:00 5,2 4,2 5 3 N 1005,1 0,6
11.02.2019 06:00:00 6,4 5,7 0 0 N 1003,9 1,6
11.02.2019 05:00:00 6,4 5,7 5 3 NO 1003,9 2,0
11.02.2019 04:00:00 6,8 6,1 13 7 O 1003,7 1,2
11.02.2019 03:00:00 6,8 6,1 9 5 O 1004,1 1,2
11.02.2019 02:00:00 6,8 6,1 5 3 ONO 1003,9 1,2
11.02.2019 01:00:00 6,8 6,1 8 4 NNO 1004,5 0,7
11.02.2019 00:00:00 6,8 6,2 0 0 N 1005,5 1,2
10.02.2019 23:00:00 6,6 5,9 9 5 ENE 1006,0 1,8
10.02.2019 22:00:00 7,0 6,5 8 4 ENE 1007,8 2,5
10.02.2019 21:00:00 6,8 6,5 11 6 E 1008,6 1,6
10.02.2019 20:00:00 6,8 6,1 8 4 NE 1010,3 1,6
10.02.2019 19:00:00 7,4 6,7 8 4 NE 1012,3 1,6
10.02.2019 18:00:00 7,8 7,0 8 4 NE 1012,1 1,7
10.02.2019 17:00:00 8,4 7,7 4 2 ENE 1013,0 1,8
10.02.2019 16:00:00 9,0 7,4 5 3 ENE 1014,4 2,2
10.02.2019 15:00:00 10,0 6,7 5 3 ESE 1014,7 2,5
10.02.2019 14:00:00 10,2 6,0 8 4 E 1015,3 2,5
10.02.2019 13:00:00 9,6 5,6 8 4 E 1017,2 2,5
10.02.2019 12:00:00 8,8 6,4 5 3 NE 1018,3 2,0
10.02.2019 11:00:00 7,4 5,9 5 3 NNE 1018,4 1,7
10.02.2019 10:00:00 7,2 5,7 5 3 NNE 1018,9 1,7
10.02.2019 09:00:00 7,0 5,8 4 2 ENE 1019,4 1,6
10.02.2019 08:00:00 6,0 5,0 5 3 NE 1019,2 1,3
10.02.2019 07:00:00 6,0 5,1 8 4 NE 1019,4 2,8

tt = Temperatura
td = dewpoint
ff = velocità del vento
dd = direzione del vento
ppp = reduced air pressure
vv = visibility

Stazioni seguenti

WeatherPro
AMSI
MeteoEarth